TimeEST,TemperatureF,Dew PointF,Humidity,Sea Level PressureIn,VisibilityMPH,Wind Direction,Wind SpeedMPH,Gust SpeedMPH,PrecipitationIn,Events,Conditions,WindDirDegrees,DateUTC
12:54 AM,12.9,-2.9,49,30.27,10.0,NW,4.6,-,N/A,,Clear,310,2013-01-23 05:54:00
1:54 AM,8.1,-0.9,67,30.28,10.0,Calm,Calm,-,N/A,,Clear,0,2013-01-23 06:54:00
2:54 AM,6.1,-0.0,76,30.29,10.0,Calm,Calm,-,N/A,,Clear,0,2013-01-23 07:54:00
3:54 AM,8.1,-0.9,67,30.28,10.0,West,4.6,-,N/A,,Clear,280,2013-01-23 08:54:00
4:54 AM,10.9,-0.0,61,30.28,10.0,West,5.8,-,N/A,,Clear,280,2013-01-23 09:54:00
5:54 AM,10.9,-0.9,59,30.29,10.0,WNW,5.8,-,N/A,,Clear,290,2013-01-23 10:54:00
6:54 AM,10.9,-0.9,59,30.30,10.0,West,5.8,-,N/A,,Clear,270,2013-01-23 11:54:00
7:54 AM,14.0,-0.0,54,30.31,10.0,WNW,9.2,-,N/A,,Clear,290,2013-01-23 12:54:00
8:54 AM,16.0,-0.0,49,30.32,10.0,WNW,15.0,-,N/A,,Clear,300,2013-01-23 13:54:00
9:54 AM,18.0,-0.0,45,30.33,10.0,WNW,13.8,21.9,N/A,,Clear,290,2013-01-23 14:54:00
10:54 AM,19.9,1.0,44,30.31,10.0,WNW,10.4,21.9,N/A,,Clear,300,2013-01-23 15:54:00
11:54 AM,21.0,1.0,42,30.27,10.0,WNW,15.0,-,N/A,,Scattered Clouds,290,2013-01-23 16:54:00
12:54 PM,21.9,1.0,40,30.23,10.0,West,11.5,-,N/A,,Mostly Cloudy,280,2013-01-23 17:54:00
1:54 PM,21.0,-0.0,40,30.22,10.0,NW,9.2,17.3,N/A,,Scattered Clouds,310,2013-01-23 18:54:00
2:54 PM,21.0,1.0,42,30.22,10.0,West,13.8,-,N/A,,Scattered Clouds,260,2013-01-23 19:54:00
3:54 PM,21.0,-0.9,38,30.22,10.0,WNW,10.4,19.6,N/A,,Scattered Clouds,290,2013-01-23 20:54:00
4:54 PM,19.9,-0.9,40,30.22,10.0,WNW,8.1,-,N/A,,Mostly Cloudy,300,2013-01-23 21:54:00
5:54 PM,18.0,-0.0,45,30.24,10.0,NW,4.6,-,N/A,,Clear,320,2013-01-23 22:54:00
6:54 PM,17.1,3.0,54,30.23,10.0,Calm,Calm,-,N/A,,Overcast,0,2013-01-23 23:54:00
7:54 PM,19.0,1.0,46,30.22,10.0,Calm,Calm,-,N/A,,Overcast,0,2013-01-24 00:54:00
8:54 PM,16.0,6.1,65,30.22,10.0,Calm,Calm,-,N/A,,Overcast,0,2013-01-24 01:54:00
9:54 PM,16.0,5.0,62,30.21,10.0,NNE,3.5,-,N/A,,Overcast,30,2013-01-24 02:54:00
10:54 PM,15.1,5.0,64,30.21,10.0,Calm,Calm,-,N/A,,Overcast,0,2013-01-24 03:54:00
11:54 PM,16.0,8.1,71,30.19,10.0,Calm,Calm,-,N/A,,Overcast,0,2013-01-24 04:54:00